GW5584 Weather Reports


time (UTC)temp
F
wind
direction
speed
knots
gust
knots
rain 1hr
in
rain 24hr
in
rain mn
in
humidity
%
barometer
mb
20260505140628 59 136 2.6 2.6 0.02 0.35 0.35 92 1007.6
20260505140125 59 121 2.6 2.6 0.00 0.34 0.34 93 1007.7
20260505124543 59 110 1.7 1.7 0.02 0.32 0.32 96 1007.4
20260505124039 59 313 0.9 3.5 0.02 0.32 0.32 96 1007.5
20260505123536 59 121 0.9 1.7 0.02 0.32 0.32 96 1007.3
20260505123033 59 300 0.9 1.7 0.02 0.32 0.32 96 1007.5
20260505122530 58 353 0.0 1.7 0.02 0.32 0.32 96 1007.0
20260505122026 58 89 0.0 1.7 0.02 0.31 0.31 96 1007.0
20260505121522 58 62 0.9 1.7 0.02 0.31 0.31 96 1007.2
20260505121019 58 29 0.0 0.9 0.02 0.31 0.31 96 1007.2
20260505120516 58 350 0.0 3.5 0.02 0.31 0.31 96 1007.1
20260505120011 58 49 0.0 0.9 0.02 0.30 0.30 96 1007.2
20260505115506 58 97 1.7 1.7 0.02 0.30 0.30 96 1007.0
20260505115004 58 307 0.9 1.7 0.02 0.30 0.30 96 1007.3
20260505114501 58 348 0.9 1.7 0.02 0.29 0.29 96 1007.1
20260505113957 58 285 0.9 1.7 0.02 0.29 0.29 96 1007.1
20260505113453 58 350 0.9 1.7 0.02 0.29 0.29 96 1007.1
20260505112949 58 351 0.9 1.7 0.02 0.29 0.29 96 1007.1
20260505112442 58 217 0.0 1.7 0.05 0.29 0.29 96 1007.1
20260505111938 58 32 0.0 1.7 0.05 0.28 0.28 96 1006.7
20260505111438 58 330 0.9 1.7 0.02 0.28 0.28 96 1006.7
20260505110934 58 353 2.6 2.6 0.02 0.28 0.28 96 1006.6
20260505110431 58 0 1.7 1.7 0.05 0.28 0.28 96 1006.8
20260505101902 59 343 1.7 1.7 0.05 0.24 0.24 96 1006.6
20260505101357 59 214 0.0 2.6 0.05 0.24 0.24 96 1006.4
20260505100853 59 150 1.7 1.7 0.05 0.24 0.24 96 1006.7
20260505100349 59 347 1.7 1.7 0.05 0.23 0.23 96 1006.6
20260505095845 59 358 1.7 2.6 0.05 0.22 0.22 96 1006.4
20260505095343 59 154 1.7 2.6 0.05 0.22 0.22 96 1006.2
20260505094839 59 138 1.7 1.7 0.05 0.22 0.22 96 1006.1
20260505094336 59 146 3.5 5.2 0.05 0.21 0.21 96 1006.1
20260505093831 59 151 3.5 6.1 0.05 0.21 0.21 96 1006.0
20260505093329 60 152 1.7 3.5 0.05 0.20 0.20 96 1005.8
20260505092826 59 153 3.5 4.3 0.07 0.20 0.20 96 1005.7
20260505092324 59 160 3.5 3.5 0.07 0.19 0.19 96 1005.9
20260505091821 59 178 1.7 2.6 0.05 0.18 0.18 96 1006.1
20260505091319 60 126 2.6 3.5 0.05 0.18 0.18 96 1006.5
20260505090817 60 138 4.3 4.3 0.07 0.18 0.18 96 1006.7
20260505090315 60 136 1.7 2.6 0.07 0.17 0.17 96 1007.3
20260505085812 60 142 0.0 1.7 0.07 0.17 0.17 96 1007.2
20260505085310 60 140 0.9 0.9 0.07 0.16 0.16 96 1007.6
20260505084807 60 230 0.0 0.0 0.07 0.15 0.15 96 1007.4
20260505084306 60 83 1.7 1.7 0.07 0.15 0.15 96 1007.5
20260505083802 60 338 1.7 1.7 0.07 0.14 0.14 95 1007.4
20260505083259 60 261 0.0 0.9 0.07 0.13 0.13 95 1007.2
20260505082755 60 140 1.7 1.7 0.07 0.13 0.13 95 1007.0
20260505082253 60 112 0.9 2.6 0.07 0.12 0.12 95 1007.1
20260505081748 60 23 0.9 1.7 0.07 0.11 0.11 95 1007.6
20260505081246 60 41 1.7 1.7 0.09 0.11 0.11 95 1007.6
20260505080743 60 202 0.0 1.7 0.07 0.10 0.10 94 1007.9
20260505080238 60 55 0.0 2.6 0.05 0.09 0.09 94 1008.1
20260505075734 60 231 0.0 1.7 0.07 0.09 0.09 94 1008.3
20260505075232 60 228 0.9 4.3 0.05 0.08 0.08 94 1008.2
20260505074729 60 109 0.0 1.7 0.05 0.08 0.08 94 1008.4
20260505074226 60 180 0.9 1.7 0.05 0.07 0.07 93 1007.9
20260505073723 60 170 1.7 2.6 0.05 0.07 0.07 93 1007.8
20260505073221 60 171 0.9 2.6 0.07 0.06 0.06 93 1008.1
20260505072717 60 240 1.7 1.7 0.09 0.06 0.06 92 1007.9
20260505072213 60 116 1.7 3.5 0.09 0.05 0.05 92 1008.1
20260505071709 60 233 0.0 4.3 0.07 0.04 0.04 92 1008.6
20260505071207 60 222 0.9 1.7 0.09 0.04 0.04 91 1007.6
20260505070704 61 251 0.0 0.9 0.12 0.03 0.03 88 1007.6
20260505070200 61 238 1.7 1.7 0.12 0.02 0.02 85 1007.8
20260505065656 62 166 0.0 2.6 0.05 0.01 0.01 83 1007.8
20260505065153 63 180 2.6 4.3 0.00 0.00 0.00 79 1007.5
20260505064650 63 163 3.5 4.3 0.00 0.00 0.00 76 1007.3
20260505064148 64 157 1.7 2.6 0.00 0.00 0.00 74 1007.2
20260505063645 64 180 1.7 2.6 0.00 0.00 0.00 73 1007.1
20260505063141 64 129 3.5 5.2 0.00 0.00 0.00 72 1006.9
20260505062637 64 164 0.9 3.5 0.00 0.00 0.00 72 1007.0
20260505062135 64 128 2.6 2.6 0.00 0.00 0.00 72 1007.0
20260505061632 64 168 3.5 5.2 0.00 0.00 0.00 71 1007.0
20260505061130 65 139 4.3 4.3 0.00 0.00 0.00 71 1007.3
20260505060627 65 149 2.6 5.2 0.00 0.00 0.00 71 1007.4
20260505060124 65 156 2.6 5.2 0.00 0.00 0.00 71 1007.5
20260505055619 65 91 2.6 3.5 0.00 0.00 0.00 71 1007.6
20260505055116 65 112 2.6 3.5 0.00 0.00 0.00 71 1007.5
20260505054613 64 135 3.5 4.3 0.00 0.00 0.00 71 1007.5
20260505054112 64 166 1.7 3.5 0.00 0.00 0.00 71 1007.6
20260505053608 64 125 1.7 4.3 0.00 0.00 0.00 71 1007.5
20260505053105 64 132 2.6 2.6 0.00 0.00 0.00 71 1007.6
20260505052602 64 148 1.7 2.6 0.00 0.00 0.00 71 1007.3
20260505052059 64 155 1.7 2.6 0.00 0.00 0.00 71 1007.3
20260505051556 65 127 4.3 5.2 0.00 0.00 0.00 70 1007.0
20260505051054 65 161 1.7 4.3 0.00 0.00 0.00 69 1007.3
20260505050552 65 164 3.5 3.5 0.00 0.00 0.00 69 1007.5
20260505041520 66 152 2.6 4.3 0.00 0.00 0.00 67 1007.8
20260505041017 66 155 1.7 3.5 0.00 0.00 0.00 67 1007.9
20260505040514 66 123 1.7 2.6 0.00 0.00 0.00 67 1008.1
20260505040012 66 138 1.7 2.6 0.00 0.00 0.00 67 1008.3
20260505035507 66 141 1.7 3.5 0.00 0.00 0.00 66 1008.1
20260505035004 66 149 3.5 3.5 0.00 0.00 0.00 66 1008.2
20260505034501 67 143 2.6 5.2 0.00 0.00 0.00 65 1008.2
20260505033958 67 151 2.6 2.6 0.00 0.00 0.00 65 1008.5
20260505033455 67 138 1.7 2.6 0.00 0.00 0.00 65 1008.3
20260505032953 67 159 1.7 2.6 0.00 0.00 0.00 65 1008.3
20260505032450 67 140 1.7 1.7 0.00 0.00 0.00 65 1008.4
20260505031946 67 139 1.7 3.5 0.00 0.00 0.00 64 1008.4
20260505031443 67 147 0.9 2.6 0.00 0.00 0.00 64 1008.5
20260505030940 67 133 2.6 2.6 0.00 0.00 0.00 64 1008.5
20260505030436 67 134 1.7 1.7 0.00 0.00 0.00 64 1008.3
20260505025931 68 176 0.9 1.7 0.00 0.00 0.00 63 1008.5
20260505025429 68 128 1.7 3.5 0.00 0.00 0.00 63 1008.5
20260505024928 68 142 1.7 3.5 0.00 0.00 0.00 63 1008.4
20260505024425 68 149 1.7 1.7 0.00 0.00 0.00 63 1008.4
20260505023922 68 189 0.9 2.6 0.00 0.00 0.00 62 1008.2
20260505023419 68 138 1.7 2.6 0.00 0.00 0.00 62 1008.3
20260505022916 68 160 0.0 2.6 0.00 0.00 0.00 61 1008.4
20260505022413 69 158 1.7 2.6 0.00 0.00 0.00 61 1008.2
20260505021910 69 144 1.7 2.6 0.00 0.00 0.00 61 1008.1
20260505021407 69 166 0.9 2.6 0.00 0.00 0.00 62 1007.9
20260505020903 69 141 1.7 1.7 0.00 0.00 0.00 62 1008.1
20260505020358 69 157 1.7 1.7 0.00 0.00 0.00 62 1007.7
20260505015855 69 156 1.7 3.5 0.00 0.00 0.00 62 1007.8
20260505015352 69 182 1.7 1.7 0.00 0.00 0.00 62 1007.7
20260505014850 69 148 1.7 3.5 0.00 0.00 0.00 61 1007.7
20260505014346 69 159 1.7 2.6 0.00 0.00 0.00 61 1007.5
20260505013843 69 143 2.6 2.6 0.00 0.00 0.00 61 1007.4
20260505013340 69 168 0.9 1.7 0.00 0.00 0.00 61 1007.4
20260505012839 70 161 1.7 1.7 0.00 0.00 0.00 60 1007.4
20260505012336 70 176 1.7 1.7 0.00 0.00 0.00 59 1007.2
20260505011832 70 186 0.9 1.7 0.00 0.00 0.00 59 1007.3
20260505011329 70 174 0.0 0.9 0.00 0.00 0.00 59 1007.2
20260505010825 71 165 0.9 1.7 0.00 0.00 0.00 58 1007.1
20260505010321 71 145 1.7 3.5 0.00 0.00 0.00 58 1006.9
20260505005817 71 154 1.7 2.6 0.00 0.00 0.00 57 1006.9
20260505005315 71 140 1.7 1.7 0.00 0.00 0.00 57 1006.9
20260505004812 71 200 0.0 1.7 0.00 0.00 0.00 57 1006.9
20260505004308 71 154 0.9 2.6 0.00 0.00 0.00 57 1006.8
20260505003806 72 224 0.0 2.6 0.00 0.00 0.00 56 1006.5
20260505003303 72 147 0.9 2.6 0.00 0.00 0.00 56 1006.7
20260505002759 72 182 0.9 1.7 0.00 0.00 0.00 56 1006.8
20260505002256 72 187 1.7 1.7 0.00 0.00 0.00 56 1006.7
20260505001754 73 148 1.7 2.6 0.00 0.00 0.00 55 1006.6
20260505001251 73 178 1.7 1.7 0.00 0.00 0.00 55 1006.6
20260505000748 73 164 1.7 1.7 0.00 0.00 0.00 56 1006.6
20260505000246 73 134 1.7 2.6 0.00 0.00 0.00 55 1006.7
20260504235742 73 148 0.0 2.6 0.00 0.00 0.00 54 1006.6
20260504235238 73 195 0.0 1.7 0.00 0.00 0.00 54 1006.6
20260504234736 73 154 1.7 3.5 0.00 0.00 0.00 52 1006.6
20260504234233 74 147 1.7 3.5 0.00 0.00 0.00 52 1006.5
20260504233729 74 171 0.9 2.6 0.00 0.00 0.00 50 1006.6
20260504233225 74 201 3.5 4.3 0.00 0.00 0.00 50 1006.5
20260504232722 74 171 1.7 4.3 0.00 0.00 0.00 50 1006.6
20260504232219 75 201 2.6 3.5 0.00 0.00 0.00 51 1006.5
20260504231716 75 148 3.5 3.5 0.00 0.00 0.00 51 1006.6
20260504231212 75 138 3.5 4.3 0.00 0.00 0.00 50 1006.7
20260504230708 75 128 3.5 6.1 0.00 0.00 0.00 49 1006.8
20260504230208 75 166 2.6 5.2 0.00 0.00 0.00 50 1006.6
20260504225706 76 133 3.5 9.6 0.00 0.00 0.00 49 1006.6
20260504225201 76 139 3.5 4.3 0.00 0.00 0.00 49 1006.5
20260504224659 76 129 4.3 6.1 0.00 0.00 0.00 48 1006.7
20260504224156 77 218 4.3 7.0 0.00 0.00 0.00 47 1006.7
20260504223653 77 115 7.0 7.8 0.00 0.00 0.00 47 1006.7
20260504223148 77 158 3.5 10.4 0.00 0.00 0.00 48 1006.8
20260504222645 77 149 2.6 5.2 0.00 0.00 0.00 47 1006.7
20260504222142 78 138 1.7 4.3 0.00 0.00 0.00 47 1006.6
20260504221640 78 274 1.7 7.8 0.00 0.00 0.00 45 1006.7
20260504221136 79 128 2.6 5.2 0.00 0.00 0.00 45 1006.8
20260504220632 78 164 1.7 4.3 0.00 0.00 0.00 45 1006.8
20260504220131 78 162 4.3 7.8 0.00 0.00 0.00 44 1006.8
20260504215626 79 229 3.5 4.3 0.00 0.00 0.00 46 1006.8
20260504215124 79 162 3.5 4.3 0.00 0.00 0.00 45 1006.8
20260504214620 78 209 1.7 4.3 0.00 0.00 0.00 46 1006.8
20260504214116 79 264 2.6 7.0 0.00 0.00 0.00 47 1007.1
20260504213613 79 158 3.5 7.0 0.00 0.00 0.00 46 1007.1
20260504213110 79 161 0.9 7.0 0.00 0.00 0.00 44 1007.0
20260504212606 80 105 2.6 5.2 0.00 0.00 0.00 44 1006.9
20260504212103 80 136 3.5 6.1 0.00 0.00 0.00 44 1007.1
20260504211600 80 138 5.2 9.6 0.00 0.00 0.00 44 1007.2
20260504211057 80 223 2.6 7.8 0.00 0.00 0.00 44 1007.2
20260504210554 80 158 5.2 7.8 0.00 0.00 0.00 43 1007.2
20260504210050 80 241 1.7 5.2 0.00 0.00 0.00 43 1007.4
20260504205548 80 194 6.1 8.7 0.00 0.00 0.00 43 1007.3
20260504205046 80 207 2.6 5.2 0.00 0.00 0.00 46 1007.5
20260504204544 80 186 4.3 5.2 0.00 0.00 0.00 44 1007.7
20260504204043 80 182 2.6 7.0 0.00 0.00 0.00 43 1007.6
20260504203540 81 284 2.6 6.1 0.00 0.00 0.00 44 1007.5
20260504203038 80 173 1.7 5.2 0.00 0.00 0.00 46 1007.6
20260504202533 80 141 6.1 7.0 0.00 0.00 0.00 42 1007.8
20260504202030 80 186 6.1 9.6 0.00 0.00 0.00 45 1007.6
20260504201527 80 257 3.5 13.0 0.00 0.00 0.00 44 1007.9
20260504201025 80 237 2.6 8.7 0.00 0.00 0.00 44 1007.9
20260504200521 80 202 2.6 6.1 0.00 0.00 0.00 46 1007.9
20260504200018 79 149 6.1 9.6 0.00 0.00 0.00 46 1007.7
20260504195514 79 177 2.6 5.2 0.00 0.00 0.00 44 1007.8
20260504195011 79 204 5.2 11.3 0.00 0.00 0.00 45 1007.9
20260504194507 80 188 2.6 9.6 0.00 0.00 0.00 45 1007.8
20260504194002 80 162 3.5 7.0 0.00 0.00 0.00 46 1008.1
20260504193500 79 228 4.3 8.7 0.00 0.00 0.00 47 1008.1
20260504192959 79 176 6.1 7.8 0.00 0.00 0.00 45 1008.3
20260504192456 80 254 3.5 6.1 0.00 0.00 0.00 44 1008.4
20260504191954 79 99 4.3 8.7 0.00 0.00 0.00 45 1008.3
20260504191452 79 230 5.2 6.1 0.00 0.00 0.00 45 1008.4
20260504190947 79 165 2.6 6.1 0.00 0.00 0.00 46 1008.4
20260504190443 80 200 7.0 7.0 0.00 0.00 0.00 45 1008.3
20260504185940 78 223 3.5 7.0 0.00 0.00 0.00 46 1008.3
20260504185437 78 217 3.5 8.7 0.00 0.00 0.00 44 1008.4
20260504184933 79 185 1.7 5.2 0.00 0.00 0.00 45 1008.3
20260504184429 79 198 3.5 5.2 0.00 0.00 0.00 47 1008.5
20260504183925 78 228 4.3 12.2 0.00 0.00 0.00 45 1008.6
20260504183422 80 148 9.6 10.4 0.00 0.00 0.00 45 1008.5
20260504182920 79 211 1.7 5.2 0.00 0.00 0.00 45 1008.6
20260504182417 79 188 4.3 5.2 0.00 0.00 0.00 44 1008.5
20260504181914 78 226 2.6 5.2 0.00 0.00 0.00 45 1008.5
20260504181411 78 230 2.6 7.0 0.00 0.00 0.00 44 1008.5
20260504180910 78 201 5.2 6.1 0.00 0.00 0.00 44 1008.7
20260504180408 77 136 3.5 9.6 0.00 0.00 0.00 46 1008.8
20260504175906 77 240 4.3 7.8 0.00 0.00 0.00 47 1008.8
20260504175402 77 198 3.5 7.8 0.00 0.00 0.00 47 1008.9
20260504174900 78 179 4.3 7.0 0.00 0.00 0.00 46 1008.9
20260504174358 78 209 10.4 11.3 0.00 0.00 0.00 45 1008.7
20260504173855 77 180 5.2 7.0 0.00 0.00 0.00 47 1008.8
20260504173351 76 264 1.7 7.8 0.00 0.00 0.00 46 1008.8
20260504172848 77 153 6.1 7.8 0.00 0.00 0.00 46 1009.0
20260504172345 77 212 6.1 7.8 0.00 0.00 0.00 45 1009.2
20260504171841 78 178 4.3 5.2 0.00 0.00 0.00 46 1009.1
20260504171338 78 141 11.3 11.3 0.00 0.00 0.00 44 1009.0
20260504170835 77 115 3.5 9.6 0.00 0.00 0.00 45 1009.1
20260504170332 77 208 3.5 6.1 0.00 0.00 0.00 49 1009.1
20260504160250 75 139 1.7 4.3 0.00 0.00 0.00 48 1009.7
20260504150716 72 177 2.6 5.2 0.00 0.00 0.00 49 1010.0
20260504150213 73 222 5.2 5.2 0.00 0.00 0.00 50 1010.0